Find Starlink 1327

NORAD ID: 45555 Int'l Des: 2020-025 Owner: SPXS Country: US Constellation: starlink operational
LEOCIRCULAR

当前视图

正在加载3D地球...

About Starlink 1327

Starlink 1327 (NORAD 45555) is a starlink constellation satellite (v1.0) launched Apr 22, 2020 by SPXS of US. It operates in LEO, CIRCULAR orbit with a mass of 260.00 kg.

关于 Starlink 1327

正在加载描述...

即将过境

Passes for default location (London). Set your location on the main map for personalized predictions.

高度历史

Loading altitude history...

两行轨道根数

1 45555U 20025AA 26169.61550909 .00043356 00000-0 38269-3 0 9994
2 45555 53.0420 293.4337 0003137 81.6744 278.4628 15.68271421341423
Epoch: Jun 18, 2026 • Age: 15 hours

当前状态

高度 367.3 km
速度 7.69 km/s
星下点 -10.63°S, 130.69°E
发射日期 Apr 22, 2020
运行时间 6.1 years
类型 internet

技术详情

分类 Payload
质量 260.00 kg
干质量 248.00 kg
总质量 260.00 kg
长度 0.20 m
直径 2.80 m
跨度 9.00 m
形状 Box + pan
制造商 SPXS
平台类型 Starlink
阶段状态 In Orbit
所有者/国家 SPXS/US

Most Searched